Location: Isle of Man Observatory
(54.1776°N, 4.6264°W)
Time: 11:05:49
(UTC+02:00)

Envisat - Visible Passes

Search period start: 30 April 2017 00:00
Search period end: 10 May 2017 00:00
Orbit: 764 x 766 km, 98.2° (Epoch: 25 April)

Date Brightness Start Highest point End Pass type
(mag) Time Alt. Az. Time Alt. Az. Time Alt. Az.
30 Apr 4.1 22:46:37 10° S 22:51:28 44° W 22:56:20 10° NNW visible
01 May 5.5 23:51:33 10° WSW 23:54:28 15° W 23:57:25 10° NW visible
02 May 4.9 23:12:57 10° SSW 23:17:18 28° W 23:21:42 10° NNW visible
03 May 3.8 22:35:22 10° S 22:40:20 53° W 22:45:20 10° NNW visible
04 May 5.4 23:39:46 10° SW 23:43:15 18° W 23:46:45 10° NW visible
05 May 4.6 23:01:32 10° SSW 23:06:08 34° W 23:10:46 10° NNW visible
07 May 5.7 00:07:37 10° W 00:09:18 11° W 00:10:58 10° WNW visible
07 May 5.2 23:28:07 10° SW 23:32:02 22° W 23:35:59 10° NW visible
08 May 4.3 22:50:12 10° SSW 22:54:59 41° W 22:59:48 10° NNW visible
